Regional Weather Roundup
Issued by NWS

Home | Current Version | Previous Version | Text Only | Print | Product List | Glossary Off
Versions: 1 2 3 4 5 6 7 8 9 10 11 12 13 14 15 16 17 18 19 20 21 22 23 24 25 26 27 28

000
ASUS45 KPSR 161810
RWRAZ

ARIZONA HOURLY REGIONAL WEATHER ROUNDUP
NATIONAL WEATHER SERVICE PHOENIX AZ
1100 AM MST MON JAN 16 2017

NOTE: FAIR INDICATES FEW OR NO CLOUDS BELOW 12,000 FEET WITH NO
SIGNIFICANT WEATHER AND/OR OBSTRUCTIONS TO VISIBILITY.

AZZ001>003-036-161900-
NORTHWEST ARIZONA

CITY           SKY/WX    TMP DP  RH WIND       PRES   REMARKS
BULLHEAD CITY  SUNNY     55  27  33 N20G28    30.14R
KINGMAN        SUNNY     42  24  49 N8        30.11R
6HR MIN TEMP:  34; 6HR MAX TEMP:  42;

$$

AZZ004>008-015-016-018-161900-
NORTH CENTRAL ARIZONA

CITY           SKY/WX    TMP DP  RH WIND       PRES   REMARKS
GRAND CANYON   MOSUNNY   35  30  82 CALM      30.07R
6HR MIN TEMP:  24; 6HR MAX TEMP:  36;

WILLIAMS       MOSUNNY   36  30  80 SE9       30.07R WCI  29
PRESCOTT       SUNNY     43  35  73 CALM      30.07R
6HR MIN TEMP:  36; 6HR MAX TEMP:  44;

FLAGSTAFF      CLOUDY    35  31  85 SW3       30.05R
6HR MIN TEMP:  27; 6HR MAX TEMP:  35;

PAYSON         CLOUDY    41  39  93 CALM      30.08S
PAGE           SUNNY     42  22  44 CALM      30.07R
6HR MIN TEMP:  35; 6HR MAX TEMP:  42;

$$

AZZ009>014-017-161900-
NORTHEAST ARIZONA

CITY           SKY/WX    TMP DP  RH WIND       PRES   REMARKS
WINSLOW        CLOUDY    44  35  70 NW10      30.06R
6HR MIN TEMP:  38; 6HR MAX TEMP:  44;

SAINT JOHNS    CLOUDY    41  37  86 NW7       30.04R
6HR MIN TEMP:  38; 6HR MAX TEMP:  41;

SHOW LOW       CLOUDY    37  32  81 S5        30.06S WCI  34
$$

AZZ023-161900-
GREATER PHOENIX AREA

CITY           SKY/WX    TMP DP  RH WIND       PRES   REMARKS
PHOENIX        PTSUNNY   55  46  71 W6        30.06R
6HR MIN TEMP:  52; 6HR MAX TEMP:  55;

BUCKEYE        PTSUNNY   50  50 100 CALM      30.08R
GLENDALE       PTSUNNY   54  54 100 CALM      30.09R
LUKE AFB       PTSUNNY   52  52 100 CALM      30.06R
DEER VALLEY    MOSUNNY   55  47  74 S7        30.05S
6HR MIN TEMP:  50; 6HR MAX TEMP:  55;

SCOTTSDALE     CLOUDY    56  46  69 VRB6      30.07S
6HR MIN TEMP:  51; 6HR MAX TEMP:  57;

MESA-FALCON    PTSUNNY  N/A N/A N/A S6        30.04R
MESA-GATEWAY   PTSUNNY   55  48  76 CALM      30.07S
$$

AZZ027-028-161900-
SOUTHWEST MARICOPA COUNTY AND PINAL COUNTY

CITY           SKY/WX    TMP DP  RH WIND       PRES   REMARKS
CASA GRANDE    CLOUDY    54  48  80 SW5       30.08R
6HR MIN TEMP:  46; 6HR MAX TEMP:  54;

$$

AZZ503-504-507>509-161900-
SOUTHEAST ARIZONA

CITY           SKY/WX    TMP DP  RH WIND       PRES   REMARKS
TUCSON         MOSUNNY   53  44  71 E3        30.08S
6HR MIN TEMP:  48; 6HR MAX TEMP:  53;

DAVIS-MONTHAN  MOSUNNY   51  45  81 E3        30.07S
6HR MIN TEMP:  46; 6HR MAX TEMP:  51; 6HR PCP:  0.01;

RYAN FIELD     SUNNY     54  46  76 CALM      30.08S
NOGALES        PTSUNNY   47  43  86 S5        30.06R
6HR MIN TEMP:  39; 6HR MAX TEMP:  47;

SIERRA VISTA   PTSUNNY   47  38  71 CALM      30.08S
6HR MIN TEMP:  39; 6HR MAX TEMP:  47;

DOUGLAS        SUNNY     46  39  76 CALM      30.07S
6HR MIN TEMP:  33; 6HR MAX TEMP:  46;

SAFFORD        MOSUNNY   52  43  71 VRB5      30.04S
6HR MIN TEMP:  44; 6HR MAX TEMP:  52;

$$

AZZ020-021-025-026-031-161900-
SOUTHWEST ARIZONA

CITY           SKY/WX    TMP DP  RH WIND       PRES   REMARKS
YUMA           PTSUNNY   61  51  70 W3        30.08S
6HR MIN TEMP:  51; 6HR MAX TEMP:  62;

$$

CAZ031-033-041-043-047-048-061-161900-
SOUTHERN CALIFORNIA

CITY           SKY/WX    TMP DP  RH WIND       PRES   REMARKS
DOWNTOWN L.A.  PTSUNNY   61  49  64 CALM      30.10S
6HR MIN TEMP:  52; 6HR MAX TEMP:  61;

L.A. AIRPORT   PTSUNNY   60  51  72 NW3       30.11R
6HR MIN TEMP:  52; 6HR MAX TEMP:  60;

SAN DIEGO      PTSUNNY   59  49  69 NW7       30.11R
6HR MIN TEMP:  53; 6HR MAX TEMP:  59;

BURBANK        SUNNY     54  46  74 CALM      30.10S
6HR MIN TEMP:  46; 6HR MAX TEMP:  54;

ONTARIO        MOSUNNY   54  50  86 SW6       30.10R
6HR MIN TEMP:  49; 6HR MAX TEMP:  54;

RIVERSIDE      MOSUNNY   49  49 100 CALM      30.11R
6HR MIN TEMP:  42; 6HR MAX TEMP:  49;

PALM SPRINGS   MOSUNNY   56  45  66 CALM      30.12R
6HR MIN TEMP:  47; 6HR MAX TEMP:  57;

EL CENTRO NAS  PTSUNNY   52  50  93 N3        30.12R FOG
6HR MIN TEMP:  44; 6HR MAX TEMP:  52;

IMPERIAL       FOG       50  50 100 CALM      30.10R VSB 1/2
6HR MIN TEMP:  44; 6HR MAX TEMP:  50;

BLYTHE         MOSUNNY   58  42  55 NE7       30.10R
6HR MIN TEMP:  43; 6HR MAX TEMP:  59;

NEEDLES        MOSUNNY   55  29  36 N10       30.14R
6HR MIN TEMP:  50; 6HR MAX TEMP:  55;

$$

NVZ020-UTZ003-161900-
SOUTHERN NEVADA-UTAH

CITY           SKY/WX    TMP DP  RH WIND       PRES   REMARKS
LAS VEGAS      MOSUNNY   49  21  33 NE17      30.16R
6HR MIN TEMP:  42; 6HR MAX TEMP:  49;

SALT LAKE CITY MOSUNNY   27  17  66 NW5       30.31R WCI  22
6HR MIN TEMP:  22; 6HR MAX TEMP:  27; 6HR PCP: TRACE;

$$

NMZ009-TXZ055-161900-
NEW MEXICO-WEST TEXAS

CITY           SKY/WX    TMP DP  RH WIND       PRES   REMARKS
ALBUQUERQUE    CLOUDY    39  36  89 CALM      30.02R
6HR MIN TEMP:  36; 6HR MAX TEMP:  39; 6HR PCP: TRACE;

EL PASO        MOSUNNY   50  36  58 SW16      30.04R
6HR MIN TEMP:  41; 6HR MAX TEMP:  50;

$$


........................KEY........................
SKY/WX - SKY CONDITION/WEATHER
TMP    - TEMPERATURE IN FAHRENHEIT
DP     - DEW POINT IN FAHRENHEIT
RH     - RELATIVE HUMIDITY IN PERCENT
WIND   - DIRECTION AND SPEED IN MILES PER HOUR (MPH)
VRB    - VARIABLE WIND DIRECTION
PRES   - MEAN SEA LEVEL PRESSURE IN INCHES OF MERCURY
         F - FALLING PRESSURE   R - RISING PRESSURE
         S - STEADY PRESSURE
VSB    - VISIBILITY IN MILES
HX     - HEAT INDEX IN FAHRENHEIT
WCI    - WIND CHILL INDEX IN FAHRENHEIT
TC     - TEMPERATURE IN CELSIUS WHICH IS ALSO KNOWN AS
         TEMPERATURE IN CENTIGRADE
AFB    - AIR FORCE BASE
         LUKE AFB IS LUKE AIR FORCE BASE
         DAVIS-MONTHAN IS DAVIS-MONTHAN AIR FORCE BASE
NAS    - NAVAL AIR STATION
         EL CENTRO NAS IS EL CENTRO NAVAL AIR STATION
N/A    - NOT AVAILABLE





USA.gov is the U.S. government's official web portal to all federal, state and local government web resources and services.